When you browse on this site, cookies collect data to enhance your experience and personalize the content and advertising you see.
Visit our Privacy Policy to learn more. By continuing to use the site, you agree to this use of cookies and data.

Météo par heure à Djelfa

Ce jour, 7 Juillet, Mardi

Heure Température Précipitation Vent Pression Humidité
00:00 +21°C° 0 mm 4 m/s 666 mmHg 49%
01:00 +21°C° 0 mm 4 m/s 665 mmHg 51%
02:00 +20°C° 0 mm 4 m/s 665 mmHg 52%
03:00 +20°C° 0 mm 4 m/s 665 mmHg 54%
04:00 +20°C° 0 mm 4 m/s 665 mmHg 51%
05:00 +20°C° 0 mm 4 m/s 666 mmHg 48%
06:00 +20°C° 0 mm 3 m/s 666 mmHg 45%
07:00 +22°C° 0 mm 4 m/s 667 mmHg 37%
08:00 +25°C° 0 mm 5 m/s 667 mmHg 29%
09:00 +27°C° 0 mm 6 m/s 668 mmHg 21%
10:00 +28°C° 0 mm 6 m/s 668 mmHg 18%
11:00 +30°C° 0 mm 6 m/s 668 mmHg 16%
12:00 +32°C° 0 mm 5 m/s 668 mmHg 13%
13:00 +32°C° 0 mm 5 m/s 668 mmHg 12%
14:00 +33°C° 0 mm 5 m/s 668 mmHg 11%
15:00 +34°C° 0 mm 5 m/s 667 mmHg 10%
16:00 +33°C° 0 mm 5 m/s 667 mmHg 11%
17:00 +33°C° 0 mm 5 m/s 667 mmHg 13%
18:00 +33°C° 0 mm 5 m/s 667 mmHg 14%
19:00 +30°C° 0 mm 4 m/s 667 mmHg 16%
20:00 +29°C° 0 mm 3 m/s 667 mmHg 19%
21:00 +28°C° 0 mm 2 m/s 667 mmHg 22%
22:00 +27°C° 0 mm 2 m/s 667 mmHg 25%
23:00 +26°C° 0 mm 2 m/s 667 mmHg 28%

Demain, 8 Juillet, Mercredi

Heure Température Précipitation Vent Pression Humidité
00:00 +25°C° 0 mm 2 m/s 667 mmHg 31%
01:00 +24°C° 0 mm 1 m/s 667 mmHg 33%
02:00 +24°C° 0 mm 1 m/s 666 mmHg 35%
03:00 +21°C° 0 mm 0 m/s 666 mmHg 38%
04:00 +22°C° 0 mm 0 m/s 666 mmHg 36%
05:00 +25°C° 0 mm 1 m/s 667 mmHg 33%
06:00 +26°C° 0 mm 1 m/s 667 mmHg 31%
07:00 +28°C° 0 mm 1 m/s 668 mmHg 28%
08:00 +29°C° 0 mm 2 m/s 668 mmHg 25%
09:00 +31°C° 0 mm 3 m/s 669 mmHg 22%
10:00 +33°C° 0 mm 3 m/s 669 mmHg 21%
11:00 +34°C° 0 mm 4 m/s 669 mmHg 19%
12:00 +35°C° 0 mm 4 m/s 669 mmHg 18%
13:00 +35°C° 0 mm 4 m/s 669 mmHg 17%
14:00 +36°C° 0 mm 4 m/s 668 mmHg 16%
15:00 +36°C° 0 mm 4 m/s 668 mmHg 15%
16:00 +36°C° 0 mm 4 m/s 668 mmHg 15%
17:00 +36°C° 0 mm 4 m/s 668 mmHg 15%
18:00 +35°C° 0 mm 4 m/s 668 mmHg 15%
19:00 +34°C° 0 mm 4 m/s 668 mmHg 17%
20:00 +33°C° 0 mm 4 m/s 668 mmHg 19%
21:00 +32°C° 0 mm 4 m/s 668 mmHg 21%
22:00 +30°C° 0 mm 4 m/s 668 mmHg 22%
23:00 +29°C° 0 mm 3 m/s 668 mmHg 23%

Après-demain, 9 Juillet, Jeudi

Heure Température Précipitation Vent Pression Humidité
00:00 +28°C° 0 mm 3 m/s 668 mmHg 24%
01:00 +28°C° 0 mm 3 m/s 667 mmHg 24%
02:00 +27°C° 0 mm 3 m/s 667 mmHg 24%
03:00 +27°C° 0 mm 3 m/s 667 mmHg 24%
04:00 +27°C° 0 mm 3 m/s 667 mmHg 24%
05:00 +27°C° 0 mm 2 m/s 667 mmHg 23%
06:00 +28°C° 0 mm 2 m/s 667 mmHg 22%
07:00 +29°C° 0 mm 3 m/s 668 mmHg 19%
08:00 +31°C° 0 mm 3 m/s 669 mmHg 17%
09:00 +34°C° 0 mm 4 m/s 669 mmHg 14%
10:00 +34°C° 0 mm 3 m/s 669 mmHg 13%
11:00 +35°C° 0 mm 3 m/s 669 mmHg 12%
12:00 +36°C° 0 mm 2 m/s 669 mmHg 11%
13:00 +36°C° 0 mm 2 m/s 668 mmHg 10%
14:00 +37°C° 0 mm 2 m/s 668 mmHg 10%
15:00 +37°C° 0 mm 3 m/s 668 mmHg 9%
16:00 +37°C° 0 mm 3 m/s 667 mmHg 10%
17:00 +36°C° 0 mm 4 m/s 667 mmHg 10%
18:00 +36°C° 0 mm 5 m/s 667 mmHg 11%
19:00 +34°C° 0 mm 5 m/s 667 mmHg 13%
20:00 +33°C° 0 mm 5 m/s 667 mmHg 15%
21:00 +32°C° 0 mm 5 m/s 667 mmHg 17%
22:00 +30°C° 0 mm 5 m/s 667 mmHg 18%
23:00 +29°C° 0 mm 5 m/s 667 mmHg 18%

10 Juillet, Vendredi

Heure Température Précipitation Vent Pression Humidité
00:00 +29°C° 0 mm 4 m/s 667 mmHg 19%
01:00 +28°C° 0 mm 4 m/s 666 mmHg 20%
02:00 +27°C° 0 mm 3 m/s 666 mmHg 22%
03:00 +26°C° 0 mm 2 m/s 666 mmHg 24%
04:00 +26°C° 0 mm 2 m/s 666 mmHg 27%
05:00 +26°C° 0 mm 1 m/s 666 mmHg 29%
06:00 +26°C° 0 mm 1 m/s 667 mmHg 31%
07:00 +28°C° 0 mm 2 m/s 667 mmHg 26%
08:00 +30°C° 0 mm 2 m/s 668 mmHg 22%
09:00 +31°C° 0 mm 3 m/s 668 mmHg 17%
10:00 +33°C° 0 mm 4 m/s 668 mmHg 16%
11:00 +34°C° 0 mm 4 m/s 668 mmHg 14%
12:00 +36°C° 0 mm 5 m/s 668 mmHg 13%
13:00 +36°C° 0 mm 5 m/s 667 mmHg 13%
14:00 +36°C° 0 mm 5 m/s 667 mmHg 12%
15:00 +36°C° 0 mm 5 m/s 667 mmHg 12%
16:00 +36°C° 0 mm 5 m/s 667 mmHg 13%
17:00 +35°C° 0 mm 4 m/s 667 mmHg 13%
18:00 +35°C° 0 mm 4 m/s 667 mmHg 14%
19:00 +33°C° 0 mm 5 m/s 667 mmHg 19%
20:00 +30°C° 0 mm 6 m/s 667 mmHg 24%
21:00 +28°C° 0 mm 7 m/s 667 mmHg 29%
22:00 +28°C° 0 mm 6 m/s 667 mmHg 30%
23:00 +28°C° 0 mm 5 m/s 666 mmHg 30%

11 Juillet, Samedi

Heure Température Précipitation Vent Pression Humidité
00:00 +27°C° 0 mm 4 m/s 666 mmHg 31%
01:00 +27°C° 0 mm 4 m/s 666 mmHg 31%
02:00 +26°C° 0 mm 4 m/s 666 mmHg 31%
03:00 +26°C° 0 mm 5 m/s 665 mmHg 31%
04:00 +26°C° 0 mm 5 m/s 666 mmHg 30%
05:00 +27°C° 0 mm 6 m/s 666 mmHg 29%
06:00 +27°C° 0 mm 6 m/s 666 mmHg 29%
07:00 +29°C° 0 mm 7 m/s 667 mmHg 26%
08:00 +31°C° 0 mm 8 m/s 668 mmHg 23%
09:00 +33°C° 0 mm 9 m/s 668 mmHg 19%
10:00 +34°C° 0 mm 8 m/s 668 mmHg 18%
11:00 +35°C° 0 mm 7 m/s 668 mmHg 17%
12:00 +36°C° 0 mm 7 m/s 668 mmHg 16%
13:00 +36°C° 0 mm 6 m/s 668 mmHg 15%
14:00 +36°C° 0 mm 6 m/s 668 mmHg 15%
15:00 +36°C° 0 mm 5 m/s 667 mmHg 15%
16:00 +36°C° 0 mm 5 m/s 667 mmHg 16%
17:00 +35°C° 0 mm 6 m/s 667 mmHg 16%
18:00 +34°C° 0 mm 6 m/s 667 mmHg 17%
19:00 +33°C° 0 mm 7 m/s 667 mmHg 21%
20:00 +30°C° 0 mm 7 m/s 667 mmHg 24%
21:00 +29°C° 0 mm 8 m/s 667 mmHg 28%
22:00 +28°C° 0 mm 7 m/s 667 mmHg 29%
23:00 +28°C° 0 mm 6 m/s 667 mmHg 29%

12 Juillet, Dimanche

Heure Température Précipitation Vent Pression Humidité
00:00 +28°C° 0 mm 6 m/s 666 mmHg 30%
01:00 +27°C° 0 mm 6 m/s 666 mmHg 30%
02:00 +27°C° 0 mm 5 m/s 666 mmHg 29%
03:00 +27°C° 0 mm 5 m/s 666 mmHg 29%
04:00 +27°C° 0 mm 5 m/s 667 mmHg 28%
05:00 +27°C° 0 mm 5 m/s 667 mmHg 27%
06:00 +27°C° 0 mm 5 m/s 667 mmHg 26%
07:00 +29°C° 0 mm 6 m/s 668 mmHg 24%
08:00 +32°C° 0 mm 6 m/s 669 mmHg 21%
09:00 +34°C° 0 mm 7 m/s 669 mmHg 18%
10:00 +36°C° 0 mm 7 m/s 669 mmHg 16%
11:00 +38°C° 0 mm 6 m/s 669 mmHg 14%
12:00 +39°C° 0 mm 5 m/s 669 mmHg 12%
13:00 +40°C° 0 mm 5 m/s 669 mmHg 11%
14:00 +40°C° 0 mm 5 m/s 669 mmHg 10%
15:00 +41°C° 0 mm 4 m/s 668 mmHg 9%
16:00 +40°C° 0 mm 5 m/s 668 mmHg 10%
17:00 +40°C° 0 mm 5 m/s 668 mmHg 10%
18:00 +39°C° 0 mm 6 m/s 667 mmHg 11%
19:00 +36°C° 0 mm 6 m/s 668 mmHg 14%
20:00 +35°C° 0 mm 6 m/s 668 mmHg 17%
21:00 +33°C° 0 mm 6 m/s 668 mmHg 21%
22:00 +32°C° 0 mm 5 m/s 668 mmHg 23%
23:00 +30°C° 0 mm 3 m/s 667 mmHg 24%
Voir plus